Weather History for Ruidoso, NM

Change the Weather History Date:

Friday, February 14, 2014

  Actual Average Record
Temperature  
Mean Temperature 55 °F -  
Max Temperature 62 °F 50 °F 66 °F (2000)
Min Temperature 48 °F 30 °F 19 °F (1997)
Degree Days  
Heating Degree Days 10    
Growing Degree Days 5 (Base 50)    
Moisture  
Dew Point 16 °F    
Average Humidity 22    
Maximum Humidity 30    
Minimum Humidity 17    
Precipitation  
Precipitation 0.00 in - - ()
Sea Level Pressure  
Sea Level Pressure 30.15 in    
Wind  
Wind Speed 13 mph (WNW)    
Max Wind Speed 24 mph    
Max Gust Speed 38 mph    
Visibility 10 miles    
Events      
Averages and records for this station are not official NWS values.
T = Trace of Precipitation, MM = Missing Value Source: NWS Daily Summary

Daily Weather History Graph

Daily Weather History Graph

Search for Another Location

Airport:

Trip Planner

Search our weather history database for the weather conditions in past years. The results will help you decide how hot, cold, wet, or windy it might be!

Date:

Astronomy

Feb. 14, 2014 Rise Set
Actual Time 6:47 AM MST 5:45 PM MST
Civil Twilight 6:21 AM MST 6:11 PM MST
Nautical Twilight 5:52 AM MST 6:40 PM MST
Astronomical Twilight 5:23 AM MST 7:09 PM MST
Moon 5:49 PM MST (2/14) 6:17 AM MST (2/14)
Length of Visible Light 11h 49m
Length of Day
10h 58m
Full, 100% of the Moon is Illuminated
Feb 14
Full
Feb 14
Full
Feb 22
Last Quarter
Mar 1
New
Mar 8
First Quarter

Hourly Weather History & Observations

Time (MST) Temp. Dew Point Humidity Pressure Visibility Wind Dir Wind Speed Gust Speed Precip Events Conditions
12:15 AM 55.4 °F 10.4 °F 17% 30.06 in 10.0 mi WNW 13.8 mph 34.5 mph N/A   Clear
12:35 AM 55.4 °F 10.4 °F 17% 30.05 in 10.0 mi NW 18.4 mph 34.5 mph N/A   Clear
12:55 AM 55.4 °F 10.4 °F 17% 30.05 in 10.0 mi WNW 16.1 mph 38.0 mph N/A   Clear
1:15 AM 55.4 °F 10.4 °F 17% 30.07 in 10.0 mi NW 18.4 mph 32.2 mph N/A   Clear
1:35 AM 55.4 °F 10.4 °F 17% 30.07 in 10.0 mi NW 12.7 mph 25.3 mph N/A   Clear
1:55 AM 55.4 °F 10.4 °F 17% 30.07 in 10.0 mi WNW 12.7 mph 26.5 mph N/A   Clear
2:15 AM 53.6 °F 10.4 °F 18% 30.07 in 10.0 mi NW 19.6 mph 25.3 mph N/A   Clear
2:35 AM 53.6 °F 10.4 °F 18% 30.07 in 10.0 mi NW 11.5 mph 25.3 mph N/A   Clear
2:55 AM 53.6 °F 10.4 °F 18% 30.07 in 10.0 mi NNW 8.1 mph 23.0 mph N/A   Clear
3:15 AM 53.6 °F 10.4 °F 18% 30.06 in 10.0 mi North 6.9 mph 16.1 mph N/A   Clear
3:35 AM 50.0 °F 10.4 °F 20% 30.07 in 10.0 mi North 5.8 mph - N/A   Clear
3:55 AM 50.0 °F 10.4 °F 20% 30.07 in 10.0 mi North - - N/A   Clear
4:15 AM 50.0 °F 10.4 °F 20% 30.08 in 10.0 mi North - - N/A   Clear
4:35 AM 50.0 °F 12.2 °F 22% 30.08 in 10.0 mi NW 4.6 mph - N/A   Clear
4:55 AM 48.2 °F 12.2 °F 24% 30.10 in 10.0 mi NE 4.6 mph - N/A   Clear
5:15 AM 50.0 °F 12.2 °F 22% 30.10 in 10.0 mi Calm Calm - N/A   Clear
5:35 AM 50.0 °F 12.2 °F 22% 30.11 in 10.0 mi NW 4.6 mph - N/A   Clear
5:55 AM 50.0 °F 14.0 °F 24% 30.12 in 10.0 mi WNW 9.2 mph - N/A   Clear
6:15 AM 50.0 °F 14.0 °F 24% 30.13 in 10.0 mi WNW 11.5 mph - N/A   Clear
6:35 AM 50.0 °F 14.0 °F 24% 30.14 in 10.0 mi WNW 11.5 mph 21.9 mph N/A   Clear
6:55 AM 48.2 °F 14.0 °F 25% 30.14 in 10.0 mi West 11.5 mph - N/A   Clear
7:15 AM 50.0 °F 15.8 °F 26% 30.15 in 10.0 mi WNW 10.4 mph - N/A   Clear
7:35 AM 50.0 °F 15.8 °F 26% 30.16 in 10.0 mi NW 6.9 mph - N/A   Clear
7:55 AM 50.0 °F 15.8 °F 26% 30.17 in 10.0 mi NNW 8.1 mph - N/A   Clear
8:15 AM 51.8 °F 15.8 °F 24% 30.18 in 10.0 mi NNW 8.1 mph 16.1 mph N/A   Clear
8:35 AM 53.6 °F 15.8 °F 22% 30.19 in 10.0 mi NNW 9.2 mph 21.9 mph N/A   Clear
8:55 AM 53.6 °F 17.6 °F 24% 30.19 in 10.0 mi NW 15.0 mph 19.6 mph N/A   Clear
9:15 AM 55.4 °F 15.8 °F 21% 30.20 in 10.0 mi NW 13.8 mph 25.3 mph N/A   Clear
9:35 AM 55.4 °F 15.8 °F 21% 30.21 in 10.0 mi NW 15.0 mph 26.5 mph N/A   Clear
9:55 AM 57.2 °F 17.6 °F 21% 30.21 in 10.0 mi NW 13.8 mph 18.4 mph N/A   Clear
10:15 AM 57.2 °F 17.6 °F 21% 30.22 in 10.0 mi WNW 16.1 mph 26.5 mph N/A   Clear
10:35 AM 57.2 °F 17.6 °F 21% 30.22 in 10.0 mi WNW 15.0 mph 27.6 mph N/A   Clear
10:55 AM 57.2 °F 17.6 °F 21% 30.21 in 10.0 mi NW 15.0 mph 25.3 mph N/A   Clear
11:15 AM 57.2 °F 17.6 °F 21% 30.20 in 10.0 mi WNW 15.0 mph 25.3 mph N/A   Clear
11:35 AM 59.0 °F 17.6 °F 20% 30.19 in 10.0 mi NW 19.6 mph 27.6 mph N/A   Clear
11:55 AM 59.0 °F 19.4 °F 22% 30.18 in 10.0 mi NW 16.1 mph 23.0 mph N/A   Clear
12:15 PM 60.8 °F 19.4 °F 20% 30.18 in 10.0 mi WNW 24.2 mph 33.4 mph N/A   Clear
12:35 PM 62.6 °F 21.2 °F 20% 30.17 in 10.0 mi WNW 21.9 mph 31.1 mph N/A   Clear
12:55 PM 60.8 °F 21.2 °F 22% 30.15 in 10.0 mi WNW 19.6 mph 34.5 mph N/A   Clear
1:15 PM 59.0 °F 21.2 °F 23% 30.15 in 10.0 mi NW 18.4 mph 34.5 mph N/A   Clear
1:35 PM 60.8 °F 21.2 °F 22% 30.15 in 10.0 mi WNW 20.7 mph 29.9 mph N/A   Clear
1:55 PM 62.6 °F 19.4 °F 19% 30.15 in 10.0 mi NW 18.4 mph 34.5 mph N/A   Clear
2:15 PM 62.6 °F 19.4 °F 19% 30.15 in 10.0 mi NW 15.0 mph 29.9 mph N/A   Clear
2:35 PM 62.6 °F 19.4 °F 19% 30.14 in 10.0 mi WNW 17.3 mph 31.1 mph N/A   Clear
2:55 PM 62.6 °F 19.4 °F 19% 30.15 in 10.0 mi NW 19.6 mph 34.5 mph N/A   Clear
3:15 PM 62.6 °F 19.4 °F 19% 30.14 in 10.0 mi WNW 12.7 mph 20.7 mph N/A   Clear
3:35 PM 62.6 °F 19.4 °F 19% 30.15 in 10.0 mi WNW 13.8 mph 25.3 mph N/A   Clear
3:55 PM 62.6 °F 19.4 °F 19% 30.15 in 10.0 mi West 9.2 mph 20.7 mph N/A   Clear
4:15 PM 62.6 °F 19.4 °F 19% 30.15 in 10.0 mi WNW 12.7 mph - N/A   Clear
4:35 PM 60.8 °F 19.4 °F 20% 30.16 in 10.0 mi NW 15.0 mph 19.6 mph N/A   Clear
4:55 PM 59.0 °F 19.4 °F 22% 30.16 in 10.0 mi WNW 8.1 mph - N/A   Clear
5:15 PM 59.0 °F 19.4 °F 22% 30.16 in 10.0 mi West 5.8 mph - N/A   Clear
5:35 PM 57.2 °F 17.6 °F 21% 30.17 in 10.0 mi WSW 5.8 mph - N/A   Clear
5:55 PM 55.4 °F 17.6 °F 23% 30.17 in 10.0 mi WSW 5.8 mph - N/A   Clear
6:15 PM 53.6 °F 17.6 °F 24% 30.17 in 10.0 mi SW 8.1 mph - N/A   Clear
6:35 PM 51.8 °F 17.6 °F 26% 30.17 in 10.0 mi SSW 5.8 mph - N/A   Clear
6:55 PM 50.0 °F 17.6 °F 28% 30.18 in 10.0 mi WSW 6.9 mph - N/A   Clear
7:15 PM 51.8 °F 17.6 °F 26% 30.18 in 10.0 mi WSW 9.2 mph - N/A   Clear
7:35 PM 50.0 °F 17.6 °F 28% 30.19 in 10.0 mi WSW 9.2 mph - N/A   Clear
7:55 PM 50.0 °F 17.6 °F 28% 30.19 in 10.0 mi WSW 10.4 mph - N/A   Clear
8:15 PM 50.0 °F 17.6 °F 28% 30.19 in 10.0 mi West 10.4 mph - N/A   Clear
8:35 PM 51.8 °F 17.6 °F 26% 30.19 in 10.0 mi West 9.2 mph - N/A   Clear
8:55 PM 50.0 °F 17.6 °F 28% 30.20 in 10.0 mi West 9.2 mph - N/A   Clear
9:15 PM 51.8 °F 17.6 °F 26% 30.19 in 10.0 mi West 9.2 mph - N/A   Clear
9:35 PM 50.0 °F 17.6 °F 28% 30.20 in 10.0 mi WNW 8.1 mph - N/A   Clear
9:55 PM 50.0 °F 19.4 °F 30% 30.20 in 10.0 mi WNW 8.1 mph - N/A   Clear
10:15 PM 50.0 °F 17.6 °F 28% 30.20 in 10.0 mi NW 8.1 mph - N/A   Clear
10:35 PM 53.6 °F 19.4 °F 26% 30.20 in 10.0 mi WNW 11.5 mph 17.3 mph N/A   Clear
10:55 PM 55.4 °F 19.4 °F 25% 30.20 in 10.0 mi WNW 12.7 mph 21.9 mph N/A   Clear
11:15 PM 55.4 °F 19.4 °F 25% 30.20 in 10.0 mi WNW 13.8 mph 23.0 mph N/A   Clear
11:35 PM 55.4 °F 19.4 °F 25% 30.20 in 10.0 mi WNW 13.8 mph 20.7 mph N/A   Clear
11:55 PM 53.6 °F 19.4 °F 26% 30.20 in 10.0 mi WNW 11.5 mph 17.3 mph N/A   Clear